Retour au catalogue

FENGYUN 1C DEB

ActifSSO
NORAD 30234·DEBRIS·🇨🇳 China

Lancé May 10, 1999 depuis Taiyuan Satellite Launch Center

Loading…

Prochains Passages (prochaines 24 heures)

TLE

FraisSource: Space-Track

Époque: Sep 14, 2026, 11:21 UTC

1 30234U 99025WT  26257.47308931  .00000367  00000-0  19909-3 0  9991
2 30234  98.6309 265.2159 0065951   3.6291 160.6310 14.17193410 13592

Suivez FENGYUN 1C DEB en temps réel avec AllMySat

Download on the App Store